Portada
METAR-TAF:

METAR-TAF

Aeroports :

Albury, Austràlia

latitud: 36-04-06S, longitud: 146-57-30E, altitud: 164 m

Observació

L'informe es va fer fa 5 minuts, a les 00:00 UTC
Vent 10 kt del Sud-Oest, variant entre Sud-Oest i Nord
Temperatura 23°C
Humitat 38%
Pressió 1013 hPa
Visibilitat 10 km o més

METAR: YMAY 220000Z AUTO 23010KT 220V010 9999 // NCD 23/08 Q1013

Hora: 11:05 (00:05 UTC)


TAF: manca

Observacions i pronòstics meteorològics de més de 4000 aeroports (METAR i TAF).

Les estacions disponibles són els punts grocs i vermells al mapa.

Posi el ratolí al punt desitjat per veure el nom de l'estació.

Feu clic per veure les observacions i els pronòstics meteorològics.

Per canviar el mapa: feu clic els botons verds amb una creu de color negre per apropar; al botó verd amb un guió per allunyar la imatge; o en les fletxes verdes per a mapes adjacents.


METAR-TAF: